Time,TemperatureF,DewpointF,PressureIn,WindDirection,WindDirectionDegrees,WindSpeedMPH,WindSpeedGustMPH,Humidity,HourlyPrecipIn,Conditions,Clouds,dailyrainin,SoftwareType,DateUTC
2013-02-11 00:04:00,20.0,6.0,30.25,WSW,241,0.0,1.0,56,0.00,,,0.00,weatherlink.com 1.10,2013-02-11 05:04:00,
2013-02-11 00:19:00,19.7,7.0,30.24,WSW,241,1.0,1.0,58,0.00,,,0.00,weatherlink.com 1.10,2013-02-11 05:19:00,
2013-02-11 00:34:00,22.1,7.0,30.23,SW,219,1.0,8.0,53,0.00,,,0.00,weatherlink.com 1.10,2013-02-11 05:34:00,
2013-02-11 00:49:00,21.6,7.0,30.22,SW,230,0.0,5.0,53,0.00,,,0.00,weatherlink.com 1.10,2013-02-11 05:49:00,
2013-02-11 01:04:00,21.2,7.0,30.21,SSW,207,2.0,4.0,54,0.00,,,0.00,weatherlink.com 1.10,2013-02-11 06:04:00,
2013-02-11 01:19:00,21.9,7.0,30.20,SSW,207,1.0,9.0,53,0.00,,,0.00,weatherlink.com 1.10,2013-02-11 06:19:00,
2013-02-11 01:34:00,21.3,7.0,30.20,SW,236,0.0,3.0,55,0.00,,,0.00,weatherlink.com 1.10,2013-02-11 06:34:00,
2013-02-11 01:49:00,20.5,7.0,30.19,SW,219,0.0,6.0,56,0.00,,,0.00,weatherlink.com 1.10,2013-02-11 06:49:00,
2013-02-11 02:04:00,19.4,7.0,30.18,SSW,203,2.0,3.0,60,0.00,,,0.00,weatherlink.com 1.10,2013-02-11 07:04:00,
2013-02-11 02:19:00,19.3,7.0,30.17,WSW,239,0.0,2.0,60,0.00,,,0.00,weatherlink.com 1.10,2013-02-11 07:19:00,
2013-02-11 02:34:00,19.4,8.0,30.16,SW,218,0.0,2.0,62,0.00,,,0.00,weatherlink.com 1.10,2013-02-11 07:34:00,
2013-02-11 02:49:00,19.5,9.0,30.16,WSW,242,0.0,1.0,63,0.00,,,0.00,weatherlink.com 1.10,2013-02-11 07:49:00,
2013-02-11 03:04:00,19.9,9.0,30.15,SSW,201,0.0,2.0,62,0.00,,,0.00,weatherlink.com 1.10,2013-02-11 08:04:00,
2013-02-11 03:20:00,20.6,9.0,30.14,SSW,210,0.0,5.0,61,0.00,,,0.00,weatherlink.com 1.10,2013-02-11 08:20:00,
2013-02-11 03:35:00,21.3,9.0,30.13,SW,225,0.0,7.0,59,0.00,,,0.00,weatherlink.com 1.10,2013-02-11 08:35:00,
2013-02-11 03:50:00,21.7,9.0,30.12,West,271,0.0,4.0,58,0.00,,,0.00,weatherlink.com 1.10,2013-02-11 08:50:00,
2013-02-11 04:05:00,21.9,9.0,30.10,SW,218,0.0,4.0,58,0.00,,,0.00,weatherlink.com 1.10,2013-02-11 09:05:00,
2013-02-11 04:20:00,22.9,9.0,30.09,SW,218,0.0,3.0,55,0.00,,,0.00,weatherlink.com 1.10,2013-02-11 09:20:00,
2013-02-11 04:35:00,23.4,9.0,30.08,SW,227,1.0,5.0,54,0.00,,,0.00,weatherlink.com 1.10,2013-02-11 09:35:00,
2013-02-11 04:50:00,24.9,8.0,30.08,SW,217,1.0,8.0,48,0.00,,,0.00,weatherlink.com 1.10,2013-02-11 09:50:00,
2013-02-11 05:05:00,25.3,8.0,30.07,NW,319,3.0,3.0,48,0.00,,,0.00,weatherlink.com 1.10,2013-02-11 10:05:00,
2013-02-11 05:20:00,25.3,9.0,30.07,WSW,258,1.0,4.0,50,0.00,,,0.00,weatherlink.com 1.10,2013-02-11 10:20:00,
2013-02-11 05:35:00,26.4,8.0,30.06,SSW,212,5.0,10.0,45,0.00,,,0.00,weatherlink.com 1.10,2013-02-11 10:35:00,
2013-02-11 05:50:00,27.7,7.0,30.05,SW,219,0.0,9.0,42,0.00,,,0.00,weatherlink.com 1.10,2013-02-11 10:50:00,
2013-02-11 06:05:00,27.8,8.0,30.04,SW,231,3.0,9.0,43,0.00,,,0.00,weatherlink.com 1.10,2013-02-11 11:05:00,
2013-02-11 06:20:00,28.1,9.0,30.03,SSW,213,1.0,10.0,45,0.00,,,0.00,weatherlink.com 1.10,2013-02-11 11:20:00,
2013-02-11 06:35:00,28.1,10.0,30.02,SSW,211,1.0,8.0,46,0.00,,,0.00,weatherlink.com 1.10,2013-02-11 11:35:00,
2013-02-11 06:50:00,27.9,10.0,30.01,SW,215,9.0,10.0,48,0.00,,,0.00,weatherlink.com 1.10,2013-02-11 11:50:00,
2013-02-11 07:05:00,28.6,10.0,30.00,South,187,4.0,9.0,45,0.00,,,0.00,weatherlink.com 1.10,2013-02-11 12:05:00,
2013-02-11 07:20:00,28.9,11.0,30.00,SSW,201,4.0,10.0,47,0.00,,,0.00,weatherlink.com 1.10,2013-02-11 12:20:00,
2013-02-11 07:35:00,29.8,12.0,29.98,SSW,193,6.0,13.0,47,0.00,,,0.00,weatherlink.com 1.10,2013-02-11 12:35:00,
2013-02-11 07:50:00,29.4,12.0,29.98,SW,215,7.0,10.0,49,0.00,,,0.00,weatherlink.com 1.10,2013-02-11 12:50:00,
2013-02-11 08:05:00,29.8,13.0,29.98,West,267,0.0,8.0,50,0.00,,,0.00,weatherlink.com 1.10,2013-02-11 13:05:00,
2013-02-11 08:21:00,30.1,14.0,29.96,SW,221,0.0,8.0,51,0.00,,,0.00,weatherlink.com 1.10,2013-02-11 13:21:00,
2013-02-11 08:36:00,30.9,14.0,29.95,SW,233,1.0,9.0,50,0.00,,,0.00,weatherlink.com 1.10,2013-02-11 13:36:00,
2013-02-11 08:51:00,31.2,15.0,29.95,SW,219,2.0,11.0,51,0.00,,,0.00,weatherlink.com 1.10,2013-02-11 13:51:00,
2013-02-11 09:06:00,31.3,16.0,29.94,SSW,207,6.0,9.0,54,0.00,,,0.00,weatherlink.com 1.10,2013-02-11 14:06:00,
2013-02-11 09:21:00,29.6,21.0,29.93,South,184,10.0,11.0,71,0.00,,,0.00,weatherlink.com 1.10,2013-02-11 14:21:00,
2013-02-11 09:36:00,29.6,23.0,29.91,SSW,197,11.0,15.0,75,0.00,,,0.00,weatherlink.com 1.10,2013-02-11 14:36:00,
2013-02-11 09:51:00,29.6,24.0,29.90,South,176,5.0,15.0,81,0.00,,,0.00,weatherlink.com 1.10,2013-02-11 14:51:00,
2013-02-11 10:06:00,29.2,25.0,29.89,SSW,192,5.0,12.0,83,0.00,,,0.00,weatherlink.com 1.10,2013-02-11 15:06:00,
2013-02-11 10:21:00,29.1,25.0,29.88,SSW,208,11.0,13.0,83,0.00,,,0.00,weatherlink.com 1.10,2013-02-11 15:21:00,
2013-02-11 10:36:00,29.4,26.0,29.87,SSW,206,2.0,13.0,88,0.00,,,0.00,weatherlink.com 1.10,2013-02-11 15:36:00,
2013-02-11 10:51:00,29.8,28.0,29.86,SW,222,2.0,14.0,91,0.00,,,0.00,weatherlink.com 1.10,2013-02-11 15:51:00,
2013-02-11 11:06:00,30.8,29.0,29.85,SW,227,1.0,11.0,92,0.00,,,0.00,weatherlink.com 1.10,2013-02-11 16:06:00,
2013-02-11 11:21:00,31.4,29.0,29.84,SW,225,4.0,12.0,91,0.00,,,0.00,weatherlink.com 1.10,2013-02-11 16:21:00,
2013-02-11 11:36:00,31.8,30.0,29.83,SSW,213,5.0,12.0,91,0.00,,,0.00,weatherlink.com 1.10,2013-02-11 16:36:00,
2013-02-11 11:51:00,32.5,30.0,29.82,SSW,193,3.0,10.0,90,0.00,,,0.00,weatherlink.com 1.10,2013-02-11 16:51:00,
2013-02-11 12:06:00,32.9,30.0,29.81,SSW,211,3.0,7.0,90,0.00,,,0.00,weatherlink.com 1.10,2013-02-11 17:06:00,
2013-02-11 12:21:00,33.3,30.0,29.80,SSW,207,4.0,8.0,89,0.00,,,0.00,weatherlink.com 1.10,2013-02-11 17:21:00,
2013-02-11 12:36:00,33.6,31.0,29.79,SW,218,2.0,7.0,90,0.00,,,0.00,weatherlink.com 1.10,2013-02-11 17:36:00,
2013-02-11 12:51:00,34.1,32.0,29.78,SSW,196,6.0,11.0,92,0.00,,,0.00,weatherlink.com 1.10,2013-02-11 17:51:00,
2013-02-11 13:07:00,34.2,32.0,29.76,SSW,213,2.0,11.0,92,0.00,,,0.00,weatherlink.com 1.10,2013-02-11 18:07:00,
2013-02-11 13:22:00,34.7,33.0,29.74,SW,234,1.0,13.0,92,0.00,,,0.00,weatherlink.com 1.10,2013-02-11 18:22:00,
2013-02-11 13:37:00,34.1,32.0,29.74,SSW,196,3.0,10.0,93,0.00,,,0.00,weatherlink.com 1.10,2013-02-11 18:37:00,
2013-02-11 13:52:00,34.4,33.0,29.72,SW,234,5.0,9.0,94,0.00,,,0.00,weatherlink.com 1.10,2013-02-11 18:52:00,
2013-02-11 14:07:00,34.9,34.0,29.73,SW,215,5.0,11.0,95,0.00,,,0.00,weatherlink.com 1.10,2013-02-11 19:07:00,
2013-02-11 14:22:00,35.1,34.0,29.71,SW,217,4.0,6.0,95,0.00,,,0.00,weatherlink.com 1.10,2013-02-11 19:22:00,
2013-02-11 14:37:00,36.0,35.0,29.69,SSW,197,4.0,11.0,94,0.00,,,0.00,weatherlink.com 1.10,2013-02-11 19:37:00,
2013-02-11 14:52:00,36.6,35.0,29.69,SSW,194,4.0,9.0,92,0.00,,,0.00,weatherlink.com 1.10,2013-02-11 19:52:00,
2013-02-11 15:07:00,36.7,35.0,29.68,SSW,212,3.0,11.0,92,0.00,,,0.00,weatherlink.com 1.10,2013-02-11 20:07:00,
2013-02-11 15:22:00,37.0,35.0,29.68,SSW,209,5.0,10.0,92,0.00,,,0.00,weatherlink.com 1.10,2013-02-11 20:22:00,
2013-02-11 15:37:00,37.3,35.0,29.67,SSW,204,4.0,12.0,91,0.00,,,0.00,weatherlink.com 1.10,2013-02-11 20:37:00,
2013-02-11 15:52:00,37.6,35.0,29.67,SW,222,3.0,8.0,91,0.00,,,0.00,weatherlink.com 1.10,2013-02-11 20:52:00,
2013-02-11 16:07:00,37.8,35.0,29.66,SSW,197,3.0,6.0,90,0.00,,,0.00,weatherlink.com 1.10,2013-02-11 21:07:00,
2013-02-11 16:22:00,37.9,35.0,29.65,SSW,207,1.0,9.0,90,0.00,,,0.00,weatherlink.com 1.10,2013-02-11 21:22:00,
2013-02-11 16:37:00,37.9,35.0,29.64,SSW,202,3.0,6.0,90,0.01,,,0.01,weatherlink.com 1.10,2013-02-11 21:37:00,
2013-02-11 16:52:00,38.1,36.0,29.63,WSW,242,1.0,12.0,90,0.01,,,0.01,weatherlink.com 1.10,2013-02-11 21:52:00,
2013-02-11 17:07:00,37.9,35.0,29.63,SW,229,0.0,5.0,90,0.01,,,0.01,weatherlink.com 1.10,2013-02-11 22:07:00,
2013-02-11 17:22:00,37.8,36.0,29.63,West,259,0.0,8.0,91,0.01,,,0.01,weatherlink.com 1.10,2013-02-11 22:22:00,
2013-02-11 17:37:00,37.8,36.0,29.63,SSW,203,1.0,3.0,92,0.00,,,0.01,weatherlink.com 1.10,2013-02-11 22:37:00,
2013-02-11 17:52:00,38.1,36.0,29.63,SW,218,3.0,8.0,91,0.00,,,0.01,weatherlink.com 1.10,2013-02-11 22:52:00,
2013-02-11 18:07:00,37.9,36.0,29.63,SW,219,2.0,5.0,91,0.00,,,0.01,weatherlink.com 1.10,2013-02-11 23:07:00,
2013-02-11 18:22:00,37.7,36.0,29.61,SSW,211,2.0,9.0,92,0.00,,,0.01,weatherlink.com 1.10,2013-02-11 23:22:00,
2013-02-11 18:37:00,37.6,36.0,29.61,SSW,210,5.0,7.0,92,0.00,,,0.01,weatherlink.com 1.10,2013-02-11 23:37:00,
2013-02-11 18:52:00,37.5,35.0,29.62,WSW,237,0.0,4.0,92,0.00,,,0.01,weatherlink.com 1.10,2013-02-11 23:52:00,
2013-02-11 19:07:00,37.2,35.0,29.62,WSW,254,0.0,1.0,92,0.00,,,0.01,weatherlink.com 1.10,2013-02-12 00:07:00,
2013-02-11 19:22:00,36.9,35.0,29.62,SW,223,0.0,5.0,93,0.00,,,0.01,weatherlink.com 1.10,2013-02-12 00:22:00,
2013-02-11 19:37:00,36.4,35.0,29.61,SSW,202,3.0,3.0,94,0.01,,,0.02,weatherlink.com 1.10,2013-02-12 00:37:00,
2013-02-11 19:52:00,35.9,34.0,29.62,SSW,213,0.0,2.0,94,0.01,,,0.02,weatherlink.com 1.10,2013-02-12 00:52:00,
2013-02-11 20:07:00,35.6,34.0,29.61,SSW,211,1.0,3.0,95,0.01,,,0.02,weatherlink.com 1.10,2013-02-12 01:07:00,
2013-02-11 20:22:00,35.9,35.0,29.61,SW,214,1.0,6.0,96,0.01,,,0.02,weatherlink.com 1.10,2013-02-12 01:22:00,
2013-02-11 20:37:00,36.7,36.0,29.63,SSW,203,0.0,8.0,97,0.00,,,0.02,weatherlink.com 1.10,2013-02-12 01:37:00,
2013-02-11 20:52:00,37.1,36.0,29.62,SSE,156,2.0,8.0,96,0.00,,,0.02,weatherlink.com 1.10,2013-02-12 01:52:00,
2013-02-11 21:07:00,38.3,37.0,29.62,SW,219,2.0,12.0,93,0.00,,,0.02,weatherlink.com 1.10,2013-02-12 02:07:00,
2013-02-11 21:22:00,38.8,36.0,29.61,South,189,5.0,10.0,90,0.00,,,0.02,weatherlink.com 1.10,2013-02-12 02:22:00,
2013-02-11 21:37:00,39.2,35.0,29.60,SW,214,8.0,12.0,86,0.00,,,0.02,weatherlink.com 1.10,2013-02-12 02:37:00,
2013-02-11 21:52:00,38.8,36.0,29.61,ESE,113,2.0,13.0,88,0.00,,,0.02,weatherlink.com 1.10,2013-02-12 02:52:00,
2013-02-11 22:07:00,38.6,35.0,29.62,SSW,198,3.0,12.0,86,0.00,,,0.02,weatherlink.com 1.10,2013-02-12 03:07:00,
2013-02-11 22:22:00,38.0,34.0,29.62,SW,219,0.0,6.0,86,0.00,,,0.02,weatherlink.com 1.10,2013-02-12 03:22:00,
2013-02-11 22:37:00,38.0,34.0,29.61,SSW,211,0.0,4.0,85,0.00,,,0.02,weatherlink.com 1.10,2013-02-12 03:37:00,
2013-02-11 22:52:00,37.9,33.0,29.61,SW,229,0.0,10.0,83,0.00,,,0.02,weatherlink.com 1.10,2013-02-12 03:52:00,
2013-02-11 23:07:00,37.4,33.0,29.61,West,261,0.0,1.0,83,0.00,,,0.02,weatherlink.com 1.10,2013-02-12 04:07:00,
2013-02-11 23:22:00,37.6,32.0,29.60,SSW,203,0.0,3.0,80,0.00,,,0.02,weatherlink.com 1.10,2013-02-12 04:22:00,
2013-02-11 23:38:00,37.5,31.0,29.60,SW,222,0.0,1.0,78,0.00,,,0.02,weatherlink.com 1.10,2013-02-12 04:38:00,
2013-02-11 23:53:00,37.6,31.0,29.60,West,271,7.0,7.0,76,0.00,,,0.02,weatherlink.com 1.10,2013-02-12 04:53:00,